Flag for Brazil

Past Weather in Florianópolis, Santa Catarina, Brazil — Yesterday and Last 2 Weeks

Now
50 °F

Sunny.


Feels Like: 48 °F
Forecast: 61 / 48 °F
Wind: 6 mph from West

Location: Florianopolis Aeroporto

Current Time: Jul 3, 2020 at 8:31:20 am

Latest Report: Jul 3, 2020 at 8:00 am


Visibility: 10 mi

Pressure: 30.12 "Hg

Humidity: 82%

Dew Point: 45 °F

Location of FlorianópolisLocation

Past Weather in Florianópolis — Graph

°F

Florianópolis Temperature Yesterday

Maximum temperature yesterday: 61 °F (at 12:00 pm)
Minimum temperature yesterday: 48 °F (at 6:00 am)
Average temperature yesterday: 56 °F

High & Low Weather Summary for the Past Weeks

 TemperatureHumidityPressure
High88 °F (Jun 20, 1:00 pm)100% (Jun 18, 7:00 am)30.27 "Hg (Jun 18, 7:00 am)
Low48 °F (Jul 2, 6:00 am)31% (Jul 1, 1:00 pm)29.45 "Hg (Jun 30, 3:00 pm)
Average66 °F73%29.97 "Hg
* Reported Jun 18 7:00 am — Jul 3 7:00 am, Florianópolis. Weather by CustomWeather, © 2020

Note: Actual official high and low records may vary slightly from our data, if they occured in-between our weather recording intervals... More about our weather records

Florianópolis Weather History for the Previous 24 Hours

Scroll right to see more
 ConditionsComfort  
Time TempWeatherWind HumidityBarometerVisibility
7:00 am
Fri, Jul 3
48 °FPassing clouds.2 mph87%30.12 "HgN/A
6:00 am50 °FPassing clouds.6 mph82%30.12 "HgN/A
5:00 am50 °FPassing clouds.2 mph76%30.09 "HgN/A
4:00 am50 °FPassing clouds.2 mph67%30.09 "HgN/A
3:00 am52 °FPassing clouds.3 mph67%30.09 "HgN/A
2:00 am52 °FPassing clouds.7 mph67%30.09 "HgN/A
1:00 am54 °FPassing clouds.2 mph67%30.09 "HgN/A
12:00 am55 °FPassing clouds.2 mph63%30.12 "HgN/A
11:00 pm
Thu, Jul 2
55 °FPassing clouds.5 mph63%30.12 "HgN/A
10:00 pm55 °FPassing clouds.2 mph63%30.09 "HgN/A
9:00 pm55 °FPassing clouds.7 mph67%30.09 "HgN/A
8:00 pm55 °FPassing clouds.12 mph67%30.09 "HgN/A
7:00 pm55 °FPassing clouds.8 mph67%30.07 "HgN/A
6:00 pm57 °FPartly cloudy.8 mph63%30.07 "HgN/A
5:00 pm59 °FScattered clouds.9 mph59%30.04 "HgN/A
4:00 pm59 °FScattered clouds.9 mph55%30.01 "HgN/A
3:00 pm59 °FScattered clouds.3 mph59%30.01 "HgN/A
2:00 pm61 °FPassing clouds.8 mph55%30.01 "HgN/A
1:00 pm61 °FScattered clouds.5 mph55%30.04 "HgN/A
12:00 pm61 °FScattered clouds.2 mph48%30.04 "HgN/A
11:00 am59 °FScattered clouds.5 mph59%30.07 "HgN/A
10:00 am59 °FSunny.3 mph59%30.07 "Hg10 mi
9:00 am54 °FSunny.3 mph82%30.07 "Hg10 mi
8:00 am54 °FSunny.2 mph82%30.04 "Hg10 mi
Weather by CustomWeather, © 2020

See weather overview